COSMOS 249 DEB, 3923

Orbit data source: Space-Track

COSMOS 249 DEB, 3923 is space debris in LEO originally from a launch on Sun, 20 Oct 1968 UTC launched from the Tyuratam Missile And Space Complex (TTMTR). Debris objects in space refer to the collection of defunct objects orbiting the Earth. Examples of debris include non-operational satellites, rocket bodies, and fragments generated from explosions, collisions, or faulty payload assembly.

Loading next visibility...
Identifier
3923, 1968-091BR
Orbit
LEO
Country
Flag of CISCIS
Related business
Manufacturer
Unknown
Mission
Spacecraft
Bus & Motor
Unknown
Mass
Unknown
Launch date (UTC)
1968-10-20 (58 years ago)
Launch vehicle
Unknown
Launch site
Tyuratam Missile And Space Complex (TTMTR)
Object type
Payload
Rocket body
Debris
Shape & HBR
Unknown shape, 0.1 m
Radar Cross Section
Medium (>0.1 m² and <1 m²)

Expand to show TLE details & history
Last TLE update: 12 hours ago

TLE from 12 hours ago
0 COSMOS 249 DEB
1  3923U 68091BR  26222.55471096  .00000990  00000-0  66038-3 0  9996
2  3923  62.2297 281.0591 0578505 220.5371 135.1184 13.45589077723939
Epoch: 2026-08-10T13:18Z
TLE epoch observation values (Epoch: 2026-08-10T13:18:47.026Z)
Latitude
-0.00002°
Longitude
122.32747°
Altitude
1,407.982 km
Speed
7.003 km/s
True Right ascension
18h 44m 14s
True Declination
0° 00' 00"
Sunlit
Object was in full shadow at epoch
Visualization orbit readout
Latitude
Unknown
Longitude
Unknown
Altitude
Unknown
Speed
Unknown
Apparent Right ascension
Unknown
Apparent Declination
Unknown
Sunlit
N/A
Visualization observer readout
Local Sidereal Time
16:01:05
Azimuth
Unknown
Elevation
Unknown
Doppler factor
Unknown
Orbital elements
Apogee altitude
1,519.394 km
Perigee altitude
655.612 km
Semi-major axis
7,465.64 km
Eccentricity
0.05785
Inclination
62.2297°
RAAN
281.0591°
Arg. of periapsis
220.5371°
True anomaly
139.56339°
Mean anomaly
135.1184°
Eccentric anomaly
137.36352°
Mean motion
3.36467 °/min
Orbital period
106.99 mins
BSTAR
0.00066038
Loading maneuver chart data...
Computing Atmospheric mass density...

Documentation

Showing up to 5 results
|